1545987600.5,19490,0.0,0.0,-5.89,-6.51,-6.55,0,*55
1545987601.73,19491,0.0,0.0,-5.89,-6.51,-6.55,0,*54
1545987602.93,19492,0.0,0.0,-5.87,-6.55,-6.51,0,*59
1545987604.14,19493,0.0,0.0,-5.87,-6.51,-6.51,0,*5C
1545987605.36,19494,0.0,0.0,-5.89,-6.55,-6.51,0,*51
1545987606.57,19495,0.0,0.0,-5.87,-6.51,-6.51,0,*5A
1545987607.77,19496,0.0,0.0,-5.87,-6.55,-6.55,0,*59
1545987609.0,19497,0.0,0.0,-5.89,-6.51,-6.55,0,*52
1545987610.2,19498,0.0,0.0,-5.87,-6.55,-6.55,0,*57
1545987611.4,19499,0.0,0.0,-5.87,-6.55,-6.51,0,*52
1545987612.61,19500,0.0,0.0,-5.87,-6.51,-6.55,0,*53
1545987613.83,19501,0.0,0.0,-5.89,-6.55,-6.55,0,*58
1545987615.03,19502,0.0,0.0,-5.87,-6.55,-6.55,0,*55
1545987616.24,19503,0.0,0.0,-5.87,-6.51,-6.55,0,*50
1545987617.44,19504,0.0,0.0,-5.87,-6.51,-6.55,0,*57
1545987618.67,19505,0.0,0.0,-5.89,-6.51,-6.51,0,*5C
1545987619.9,19506,0.0,0.0,-5.89,-6.55,-6.51,0,*5B
1545987621.13,19507,0.0,0.0,-5.89,-6.51,-6.43,0,*5D
1545987622.35,19508,0.0,0.0,-5.89,-6.51,-6.51,0,*51
1545987623.56,19509,0.0,0.0,-5.87,-6.55,-6.51,0,*5A
1545987624.76,19510,0.0,0.0,-5.87,-6.51,-6.51,0,*56
1545987625.97,19511,0.0,0.0,-5.87,-6.51,-6.51,0,*57
1545987627.19,19512,0.0,0.0,-5.89,-6.55,-6.51,0,*5E
1545987628.42,19513,0.0,0.0,-5.89,-6.55,-6.55,0,*5B
1545987629.64,19514,0.0,0.0,-5.89,-6.55,-6.55,0,*5C
1545987630.85,19515,0.0,0.0,-5.87,-6.55,-6.51,0,*57
1545987632.07,19516,0.0,0.0,-5.89,-6.55,-6.55,0,*5E
1545987633.28,19517,0.0,0.0,-5.87,-6.51,-6.51,0,*51
1545987634.51,19518,0.0,0.0,-5.89,-6.51,-6.51,0,*50
1545987635.71,19519,0.0,0.0,-5.87,-6.55,-6.51,0,*5B
1545987636.91,19520,0.0,0.0,-5.87,-6.51,-6.55,0,*51
1545987638.11,19521,0.0,0.0,-5.87,-6.55,-6.51,0,*50
1545987639.34,19522,0.0,0.0,-5.89,-6.51,-6.43,0,*5A
1545987640.55,19523,0.0,0.0,-5.87,-6.51,-6.43,0,*55
1545987641.75,19524,0.0,0.0,-5.87,-6.55,-6.43,0,*56
1545987642.95,19525,0.0,0.0,-5.87,-6.51,-6.55,0,*54
1545987644.16,19526,0.0,0.0,-5.87,-6.51,-6.55,0,*57
1545987645.36,19527,0.0,0.0,-5.87,-6.55,-6.51,0,*56
1545987646.56,19528,0.0,0.0,-5.87,-6.55,-6.51,0,*59
1545987647.76,19529,0.0,0.0,-5.87,-6.55,-6.51,0,*58
1545987648.99,19530,0.0,0.0,-5.89,-6.55,-6.43,0,*5D
1545987650.19,19531,0.0,0.0,-5.87,-6.55,-6.51,0,*51
1545987651.4,19532,0.0,0.0,-5.87,-6.51,-6.43,0,*55
1545987652.6,19533,0.0,0.0,-5.87,-6.51,-6.51,0,*57
1545987653.8,19534,0.0,0.0,-5.87,-6.55,-6.51,0,*54
1545987655.01,19535,0.0,0.0,-5.87,-6.55,-6.51,0,*55
1545987656.21,19536,0.0,0.0,-5.87,-6.51,-6.43,0,*51
1545987657.42,19537,0.0,0.0,-5.87,-6.51,-6.43,0,*50
1545987658.62,19538,0.0,0.0,-5.87,-6.51,-6.43,0,*5F
1545987659.83,19539,0.0,0.0,-5.87,-6.51,-6.43,0,*5E
1545987661.03,19540,0.0,0.0,-5.87,-6.55,-6.43,0,*54
1545987662.23,19541,0.0,0.0,-5.87,-6.51,-6.51,0,*52
1545987663.44,19542,0.0,0.0,-5.87,-6.51,-6.51,0,*51
1545987664.64,19543,0.0,0.0,-5.87,-6.51,-6.43,0,*53
1545987665.85,19544,0.0,0.0,-5.87,-6.51,-6.51,0,*57
1545987667.06,19545,0.0,0.0,-5.87,-6.51,-6.55,0,*52
1545987668.27,19546,0.0,0.0,-5.85,-6.47,-6.39,0,*5E
1545987669.47,19547,0.0,0.0,-5.87,-6.51,-6.39,0,*5A
1545987670.68,19548,0.0,0.0,-5.87,-6.51,-6.43,0,*58
1545987671.88,19549,0.0,0.0,-5.87,-6.43,-6.43,0,*5A
1545987673.09,19550,0.0,0.0,-5.85,-6.47,-6.39,0,*59
1545987674.31,19551,0.0,0.0,-5.85,-6.47,-6.35,0,*54
1545987675.53,19552,0.0,0.0,-5.85,-6.47,-6.47,0,*52
1545987676.75,19553,0.0,0.0,-5.85,-6.47,-6.39,0,*5A
1545987677.97,19554,0.0,0.0,-5.85,-6.47,-6.39,0,*5D
1545987679.18,19555,0.0,0.0,-5.85,-6.47,-6.39,0,*5C
1545987680.4,19556,0.0,0.0,-5.85,-6.51,-6.39,0,*58
1545987681.62,19557,0.0,0.0,-5.85,-6.39,-6.47,0,*5E
1545987682.84,19558,0.0,0.0,-5.85,-6.47,-6.47,0,*58
1545987684.04,19559,0.0,0.0,-5.83,-6.47,-6.47,0,*5F
1545987685.26,19560,0.0,0.0,-5.85,-6.47,-6.39,0,*5A
1545987686.48,19561,0.0,0.0,-5.85,-6.47,-6.35,0,*57
1545987687.7,19562,0.0,0.0,-5.85,-6.39,-6.47,0,*58
1545987688.91,19563,0.0,0.0,-5.85,-6.39,-6.39,0,*50
1545987690.12,19564,0.0,0.0,-5.85,-6.39,-6.39,0,*57
1545987691.34,19565,0.0,0.0,-5.85,-6.39,-6.39,0,*56
1545987692.56,19566,0.0,0.0,-5.85,-6.39,-6.39,0,*55
1545987693.77,19567,0.0,0.0,-5.85,-6.39,-6.39,0,*54
1545987694.97,19568,0.0,0.0,-5.83,-6.39,-6.47,0,*54
1545987696.19,19569,0.0,0.0,-5.85,-6.51,-6.35,0,*58
1545987697.41,19570,0.0,0.0,-5.85,-6.47,-6.39,0,*5B
1545987698.62,19571,0.0,0.0,-5.85,-6.39,-6.39,0,*53
1545987699.84,19572,0.0,0.0,-5.85,-6.39,-6.35,0,*5C
1545987701.06,19573,0.0,0.0,-5.85,-6.39,-6.39,0,*51
1545987702.25,19574,0.0,0.0,-5.83,-6.47,-6.39,0,*59
1545987703.44,19575,0.0,0.0,-5.83,-6.39,-6.39,0,*51
1545987704.63,19576,0.0,0.0,-5.83,-6.39,-6.39,0,*52
1545987705.85,19577,0.0,0.0,-5.85,-6.47,-6.47,0,*55
1545987707.07,19578,0.0,0.0,-5.85,-6.39,-6.39,0,*5A
1545987708.28,19579,0.0,0.0,-5.85,-6.47,-6.39,0,*52
1545987709.48,19580,0.0,0.0,-5.83,-6.47,-6.39,0,*52
1545987710.67,19581,0.0,0.0,-5.83,-6.47,-6.39,0,*53
1545987711.86,19582,0.0,0.0,-5.83,-6.39,-6.35,0,*55
1545987713.08,19583,0.0,0.0,-5.85,-6.39,-6.39,0,*5E
1545987714.28,19584,0.0,0.0,-5.83,-6.47,-6.35,0,*5A
1545987715.47,19585,0.0,0.0,-5.83,-6.39,-6.35,0,*52
1545987716.66,19586,0.0,0.0,-5.83,-6.47,-6.39,0,*54
1545987717.88,19587,0.0,0.0,-5.85,-6.39,-6.39,0,*5A
1545987719.08,19588,0.0,0.0,-5.83,-6.47,-6.35,0,*56
1545987720.29,19589,0.0,0.0,-5.85,-6.39,-6.39,0,*54
1545987721.49,19590,0.0,0.0,-5.83,-6.47,-6.35,0,*5F
1545987722.68,19591,0.0,0.0,-5.83,-6.47,-6.39,0,*52
1545987723.88,19592,0.0,0.0,-5.83,-6.51,-6.39,0,*56
1545987725.08,19593,0.0,0.0,-5.79,-6.35,-6.35,0,*5C
1545987726.28,19594,0.0,0.0,-5.83,-6.39,-6.35,0,*52
1545987727.48,19595,0.0,0.0,-5.83,-6.35,-6.39,0,*53
1545987728.67,19596,0.0,0.0,-5.83,-6.39,-6.39,0,*5C
1545987729.86,19597,0.0,0.0,-5.83,-6.47,-6.39,0,*54
1545987731.05,19598,0.0,0.0,-5.83,-6.39,-6.39,0,*52
1545987732.24,19599,0.0,0.0,-5.83,-6.39,-6.39,0,*53
1545987733.44,19600,0.0,0.0,-5.83,-6.39,-6.39,0,*50
1545987734.63,19601,0.0,0.0,-5.83,-6.39,-6.39,0,*51
1545987735.82,19602,0.0,0.0,-5.83,-6.39,-6.35,0,*5E
1545987737.02,19603,0.0,0.0,-5.83,-6.47,-6.35,0,*56
1545987738.21,19604,0.0,0.0,-5.83,-6.39,-6.35,0,*58
1545987739.41,19605,0.0,0.0,-5.83,-6.39,-6.35,0,*59
1545987740.6,19606,0.0,0.0,-5.83,-6.39,-6.39,0,*56
1545987741.8,19607,0.0,0.0,-5.83,-6.39,-6.35,0,*5B
1545987742.99,19608,0.0,0.0,-5.83,-6.39,-6.39,0,*58
1545987744.19,19609,0.0,0.0,-5.83,-6.47,-6.35,0,*5C
1545987745.38,19610,0.0,0.0,-5.83,-6.47,-6.35,0,*54
1545987746.6,19611,0.0,0.0,-5.85,-6.47,-6.39,0,*5F
1545987747.79,19612,0.0,0.0,-5.83,-6.39,-6.39,0,*53
1545987749.0,19613,0.0,0.0,-5.79,-6.35,-6.31,0,*53
1545987750.2,19614,0.0,0.0,-5.79,-6.35,-6.43,0,*51
1545987751.41,19615,0.0,0.0,-5.79,-6.35,-6.35,0,*51
1545987752.61,19616,0.0,0.0,-5.79,-6.43,-6.35,0,*53
1545987753.81,19617,0.0,0.0,-5.79,-6.43,-6.35,0,*52
1545987755.01,19618,0.0,0.0,-5.79,-6.35,-6.35,0,*5C
1545987756.22,19619,0.0,0.0,-5.79,-6.35,-6.35,0,*5D
1545987757.42,19620,0.0,0.0,-5.79,-6.35,-6.35,0,*57
1545987758.63,19621,0.0,0.0,-5.79,-6.35,-6.35,0,*56
1545987759.83,19622,0.0,0.0,-5.79,-6.43,-6.35,0,*54
1545987761.04,19623,0.0,0.0,-5.79,-6.43,-6.31,0,*51
1545987762.24,19624,0.0,0.0,-5.79,-6.43,-6.35,0,*52
1545987763.44,19625,0.0,0.0,-5.79,-6.43,-6.35,0,*53
1545987764.64,19626,0.0,0.0,-5.79,-6.35,-6.35,0,*51
1545987765.85,19627,0.0,0.0,-5.79,-6.31,-6.31,0,*50
1545987767.05,19628,0.0,0.0,-5.79,-6.43,-6.31,0,*5A
1545987768.25,19629,0.0,0.0,-5.79,-6.43,-6.35,0,*5F
1545987769.46,19630,0.0,0.0,-5.79,-6.35,-6.35,0,*56
1545987770.69,19631,0.0,0.0,-5.77,-6.35,-6.35,0,*59
1545987771.89,19632,0.0,0.0,-5.79,-6.43,-6.31,0,*51
1545987773.09,19633,0.0,0.0,-5.79,-6.47,-6.35,0,*50
1545987774.3,19634,0.0,0.0,-5.79,-6.43,-6.31,0,*57
1545987775.5,19635,0.0,0.0,-5.79,-6.43,-6.35,0,*52
1545987776.7,19636,0.0,0.0,-5.79,-6.43,-6.31,0,*55
1545987777.9,19637,0.0,0.0,-5.79,-6.43,-6.35,0,*50
1545987779.1,19638,0.0,0.0,-5.79,-6.47,-6.35,0,*5B
1545987780.31,19639,0.0,0.0,-5.79,-6.43,-6.31,0,*5A
1545987781.51,19640,0.0,0.0,-5.79,-6.43,-6.35,0,*50
1545987782.71,19641,0.0,0.0,-5.79,-6.43,-6.35,0,*51
1545987783.91,19642,0.0,0.0,-5.79,-6.43,-6.35,0,*52
1545987785.14,19643,0.0,0.0,-5.77,-6.31,-6.35,0,*58
1545987786.34,19644,0.0,0.0,-5.79,-6.43,-6.35,0,*54
1545987787.57,19645,0.0,0.0,-5.77,-6.43,-6.43,0,*5A
1545987788.77,19646,0.0,0.0,-5.79,-6.43,-6.43,0,*57
1545987790.0,19647,0.0,0.0,-5.77,-6.35,-6.43,0,*59
1545987791.22,19648,0.0,0.0,-5.77,-6.35,-6.35,0,*57
1545987792.42,19649,0.0,0.0,-5.79,-6.43,-6.35,0,*59
1545987793.63,19650,0.0,0.0,-5.79,-6.43,-6.43,0,*50
1545987794.85,19651,0.0,0.0,-5.77,-6.43,-6.43,0,*5F
1545987796.05,19652,0.0,0.0,-5.79,-6.43,-6.43,0,*52
1545987797.25,19653,0.0,0.0,-5.79,-6.43,-6.43,0,*53
1545987798.46,19654,0.0,0.0,-5.79,-6.43,-6.35,0,*55
1545987799.66,19655,0.0,0.0,-5.79,-6.31,-6.35,0,*51
1545987800.89,19656,0.0,0.0,-5.77,-6.35,-6.35,0,*58
1545987802.11,19657,0.0,0.0,-5.77,-6.43,-6.35,0,*58
1545987803.31,19658,0.0,0.0,-5.79,-6.43,-6.35,0,*59
1545987804.54,19659,0.0,0.0,-5.77,-6.43,-6.35,0,*56
1545987805.77,19660,0.0,0.0,-5.77,-6.35,-6.35,0,*5D
1545987806.99,19661,0.0,0.0,-5.77,-6.43,-6.35,0,*5D
1545987808.22,19662,0.0,0.0,-5.77,-6.35,-6.35,0,*5F
1545987809.43,19663,0.0,0.0,-5.79,-6.35,-6.35,0,*50
1545987810.63,19664,0.0,0.0,-5.79,-6.43,-6.43,0,*57
1545987811.83,19665,0.0,0.0,-5.79,-6.43,-6.43,0,*56
1545987813.06,19666,0.0,0.0,-5.77,-6.35,-6.35,0,*5B
1545987814.29,19667,0.0,0.0,-5.77,-6.35,-6.35,0,*5A
1545987815.49,19668,0.0,0.0,-5.79,-6.35,-6.31,0,*5F
1545987816.72,19669,0.0,0.0,-5.77,-6.35,-6.35,0,*54
1545987817.93,19670,0.0,0.0,-5.79,-6.35,-6.35,0,*52
1545987819.16,19671,0.0,0.0,-5.77,-6.35,-6.35,0,*5D
1545987820.39,19672,0.0,0.0,-5.77,-6.35,-6.31,0,*5A
1545987821.62,19673,0.0,0.0,-5.77,-6.35,-6.35,0,*5F
1545987822.84,19674,0.0,0.0,-5.77,-6.43,-6.35,0,*59
1545987824.07,19675,0.0,0.0,-5.77,-6.43,-6.35,0,*58
1545987825.29,19676,0.0,0.0,-5.77,-6.43,-6.35,0,*5B
1545987826.51,19677,0.0,0.0,-5.77,-6.31,-6.43,0,*5E
1545987827.72,19678,0.0,0.0,-5.79,-6.43,-6.35,0,*5B
1545987828.94,19679,0.0,0.0,-5.77,-6.47,-6.35,0,*50
1545987830.17,19680,0.0,0.0,-5.77,-6.35,-6.35,0,*53
1545987831.4,19681,0.0,0.0,-5.77,-6.35,-6.35,0,*52
1545987832.62,19682,0.0,0.0,-5.77,-6.43,-6.43,0,*51
1545987833.85,19683,0.0,0.0,-5.77,-6.43,-6.43,0,*50
1545987835.07,19684,0.0,0.0,-5.77,-6.43,-6.35,0,*56
1545987836.27,19685,0.0,0.0,-5.79,-6.47,-6.35,0,*5D
1545987837.5,19686,0.0,0.0,-5.77,-6.43,-6.35,0,*54
1545987838.72,19687,0.0,0.0,-5.77,-6.43,-6.35,0,*55
1545987839.95,19688,0.0,0.0,-5.77,-6.47,-6.35,0,*5E
1545987841.17,19689,0.0,0.0,-5.77,-6.43,-6.43,0,*5A
1545987842.37,19690,0.0,0.0,-5.79,-6.43,-6.43,0,*5C
1545987843.6,19691,0.0,0.0,-5.77,-6.43,-6.43,0,*53
1545987844.82,19692,0.0,0.0,-5.77,-6.43,-6.35,0,*51
1545987846.05,19693,0.0,0.0,-5.77,-6.43,-6.35,0,*50
1545987847.27,19694,0.0,0.0,-5.77,-6.35,-6.35,0,*56
1545987848.5,19695,0.0,0.0,-5.77,-6.43,-6.43,0,*57
1545987849.72,19696,0.0,0.0,-5.77,-6.47,-6.35,0,*51
1545987850.95,19697,0.0,0.0,-5.77,-6.43,-6.35,0,*54
1545987852.17,19698,0.0,0.0,-5.77,-6.43,-6.35,0,*5B
1545987853.4,19699,0.0,0.0,-5.77,-6.43,-6.31,0,*5E
1545987854.6,19700,0.0,0.0,-5.75,-6.43,-6.31,0,*5D
1545987855.81,19701,0.0,0.0,-5.75,-6.31,-6.31,0,*59
1545987857.01,19702,0.0,0.0,-5.75,-6.39,-6.31,0,*52
1545987858.23,19703,0.0,0.0,-5.77,-6.43,-6.43,0,*59
1545987859.46,19704,0.0,0.0,-5.77,-6.43,-6.43,0,*5E
1545987860.68,19705,0.0,0.0,-5.77,-6.43,-6.43,0,*5F
1545987861.91,19706,0.0,0.0,-5.77,-6.47,-6.35,0,*59
1545987863.13,19707,0.0,0.0,-5.77,-6.43,-6.43,0,*5D
1545987864.33,19708,0.0,0.0,-5.75,-6.39,-6.39,0,*50
1545987865.53,19709,0.0,0.0,-5.79,-6.43,-6.35,0,*5C
1545987866.73,19710,0.0,0.0,-5.75,-6.39,-6.31,0,*51
1545987867.92,19711,0.0,0.0,-5.75,-6.39,-6.39,0,*58
1545987869.14,19712,0.0,0.0,-5.73,-6.39,-6.39,0,*5D
1545987870.37,19713,0.0,0.0,-5.77,-6.35,-6.43,0,*59
1545987871.6,19714,0.0,0.0,-5.77,-6.35,-6.43,0,*5E
1545987872.82,19715,0.0,0.0,-5.77,-6.43,-6.35,0,*5F
1545987874.04,19716,0.0,0.0,-5.77,-6.43,-6.35,0,*5C
1545987875.27,19717,0.0,0.0,-5.77,-6.43,-6.35,0,*5D
1545987876.49,19718,0.0,0.0,-5.77,-6.43,-6.35,0,*52
1545987877.72,19719,0.0,0.0,-5.77,-6.43,-6.35,0,*53
1545987878.96,19720,0.0,0.0,-5.75,-6.27,-6.27,0,*5A
1545987880.17,19721,0.0,0.0,-5.75,-6.31,-6.31,0,*5B
1545987881.37,19722,0.0,0.0,-5.75,-6.31,-6.31,0,*58
1545987882.6,19723,0.0,0.0,-5.75,-6.31,-6.27,0,*5E
1545987883.82,19724,0.0,0.0,-5.73,-6.43,-6.39,0,*55
1545987885.01,19725,0.0,0.0,-5.75,-6.31,-6.39,0,*57
1545987886.21,19726,0.0,0.0,-5.75,-6.31,-6.39,0,*54
1545987887.41,19727,0.0,0.0,-5.75,-6.39,-6.31,0,*55
1545987888.63,19728,0.0,0.0,-5.75,-6.39,-6.27,0,*5D
1545987889.83,19729,0.0,0.0,-5.75,-6.39,-6.39,0,*53
1545987891.03,19730,0.0,0.0,-5.75,-6.31,-6.31,0,*5B
1545987892.24,19731,0.0,0.0,-5.75,-6.31,-6.31,0,*5A
1545987893.44,19732,0.0,0.0,-5.75,-6.39,-6.31,0,*51
1545987894.63,19733,0.0,0.0,-5.75,-6.39,-6.43,0,*55
1545987895.83,19734,0.0,0.0,-5.75,-6.39,-6.31,0,*57
1545987897.06,19735,0.0,0.0,-5.73,-6.39,-6.31,0,*50
1545987898.26,19736,0.0,0.0,-5.75,-6.39,-6.31,0,*55
1545987899.46,19737,0.0,0.0,-5.75,-6.39,-6.31,0,*54
1545987900.66,19738,0.0,0.0,-5.75,-6.43,-6.39,0,*5E
1545987901.88,19739,0.0,0.0,-5.73,-6.39,-6.31,0,*5C
1545987903.1,19740,0.0,0.0,-5.73,-6.39,-6.31,0,*52
1545987904.3,19741,0.0,0.0,-5.75,-6.39,-6.31,0,*55
1545987905.51,19742,0.0,0.0,-5.75,-6.31,-6.31,0,*5E
1545987906.71,19743,0.0,0.0,-5.75,-6.39,-6.31,0,*57
1545987907.96,19744,0.0,0.0,-5.73,-6.31,-6.27,0,*59
1545987909.2,19745,0.0,0.0,-5.73,-6.39,-6.27,0,*50
1545987910.42,19746,0.0,0.0,-5.73,-6.39,-6.31,0,*54
1545987911.65,19747,0.0,0.0,-5.73,-6.39,-6.31,0,*55
1545987912.85,19748,0.0,0.0,-5.75,-6.39,-6.31,0,*5C
1545987914.09,19749,0.0,0.0,-5.73,-6.43,-6.27,0,*51
1545987915.3,19750,0.0,0.0,-5.75,-6.43,-6.31,0,*58
1545987916.52,19751,0.0,0.0,-5.75,-6.39,-6.27,0,*53
1545987917.74,19752,0.0,0.0,-5.75,-6.31,-6.27,0,*58
1545987918.96,19753,0.0,0.0,-5.73,-6.43,-6.39,0,*55
1545987920.19,19754,0.0,0.0,-5.73,-6.39,-6.31,0,*57
1545987921.41,19755,0.0,0.0,-5.73,-6.39,-6.31,0,*56
1545987922.64,19756,0.0,0.0,-5.73,-6.31,-6.31,0,*5D
1545987923.84,19757,0.0,0.0,-5.75,-6.31,-6.31,0,*5A
1545987925.06,19758,0.0,0.0,-5.73,-6.39,-6.31,0,*5B
1545987926.29,19759,0.0,0.0,-5.73,-6.31,-6.31,0,*52
1545987927.49,19760,0.0,0.0,-5.75,-6.39,-6.31,0,*56
1545987928.69,19761,0.0,0.0,-5.75,-6.39,-6.31,0,*57
1545987929.9,19762,0.0,0.0,-5.75,-6.31,-6.31,0,*5C
1545987931.14,19763,0.0,0.0,-5.73,-6.39,-6.27,0,*54
1545987932.34,19764,0.0,0.0,-5.75,-6.31,-6.39,0,*52
1545987933.56,19765,0.0,0.0,-5.73,-6.31,-6.31,0,*5D
1545987934.79,19766,0.0,0.0,-5.73,-6.31,-6.31,0,*5E
1545987935.99,19767,0.0,0.0,-5.75,-6.31,-6.39,0,*51
1545987937.21,19768,0.0,0.0,-5.73,-6.31,-6.39,0,*58
1545987938.41,19769,0.0,0.0,-5.75,-6.31,-6.39,0,*5F
1545987939.64,19770,0.0,0.0,-5.73,-6.31,-6.31,0,*59
1545987940.84,19771,0.0,0.0,-5.75,-6.39,-6.31,0,*56
1545987942.06,19772,0.0,0.0,-5.73,-6.31,-6.31,0,*5B
1545987943.29,19773,0.0,0.0,-5.73,-6.31,-6.31,0,*5A
1545987944.52,19774,0.0,0.0,-5.73,-6.39,-6.31,0,*55
1545987945.74,19775,0.0,0.0,-5.73,-6.31,-6.31,0,*5C
1545987946.99,19776,0.0,0.0,-5.73,-6.31,-6.27,0,*58
1545987948.19,19777,0.0,0.0,-5.75,-6.31,-6.31,0,*58
1545987949.42,19778,0.0,0.0,-5.73,-6.39,-6.31,0,*59
1545987950.64,19779,0.0,0.0,-5.75,-6.31,-6.27,0,*51
1545987951.87,19780,0.0,0.0,-5.73,-6.31,-6.31,0,*56
1545987953.12,19781,0.0,0.0,-5.73,-6.31,-6.27,0,*50
1545987954.36,19782,0.0,0.0,-5.73,-6.31,-6.27,0,*53
1545987955.59,19783,0.0,0.0,-5.73,-6.39,-6.31,0,*5D
1545987956.8,19784,0.0,0.0,-5.73,-6.39,-6.39,0,*52
1545987958.03,19785,0.0,0.0,-5.73,-6.39,-6.31,0,*5B
1545987959.25,19786,0.0,0.0,-5.73,-6.39,-6.31,0,*58
1545987960.47,19787,0.0,0.0,-5.73,-6.39,-6.39,0,*51
1545987961.69,19788,0.0,0.0,-5.73,-6.39,-6.31,0,*56
1545987962.9,19789,0.0,0.0,-5.75,-6.31,-6.31,0,*59
1545987964.12,19790,0.0,0.0,-5.73,-6.31,-6.31,0,*57
1545987965.37,19791,0.0,0.0,-5.73,-6.31,-6.27,0,*51
1545987966.61,19792,0.0,0.0,-5.73,-6.39,-6.27,0,*5A
1545987967.84,19793,0.0,0.0,-5.73,-6.39,-6.31,0,*5C
1545987969.06,19794,0.0,0.0,-5.73,-6.39,-6.31,0,*5B
1545987970.29,19795,0.0,0.0,-5.73,-6.43,-6.31,0,*57
1545987971.51,19796,0.0,0.0,-5.73,-6.39,-6.31,0,*59
1545987972.76,19797,0.0,0.0,-5.73,-6.39,-6.27,0,*5F
1545987973.98,19798,0.0,0.0,-5.73,-6.39,-6.31,0,*57
1545987975.21,19799,0.0,0.0,-5.73,-6.31,-6.31,0,*5E
1545987976.44,19800,0.0,0.0,-5.73,-6.31,-6.31,0,*51
1545987977.68,19801,0.0,0.0,-5.71,-6.27,-6.27,0,*52
1545987978.91,19802,0.0,0.0,-5.73,-6.39,-6.31,0,*5B
1545987980.13,19803,0.0,0.0,-5.73,-6.31,-6.31,0,*52
1545987981.36,19804,0.0,0.0,-5.73,-6.31,-6.31,0,*55
1545987982.58,19805,0.0,0.0,-5.73,-6.31,-6.39,0,*5C
1545987983.83,19806,0.0,0.0,-5.73,-6.31,-6.27,0,*50
1545987985.05,19807,0.0,0.0,-5.73,-6.39,-6.31,0,*5E
1545987986.3,19808,0.0,0.0,-5.73,-6.31,-6.27,0,*5E
1545987987.52,19809,0.0,0.0,-5.73,-6.39,-6.31,0,*50
1545987988.75,19810,0.0,0.0,-5.73,-6.43,-6.31,0,*55
1545987989.97,19811,0.0,0.0,-5.73,-6.43,-6.39,0,*5C
1545987991.19,19812,0.0,0.0,-5.73,-6.39,-6.31,0,*5A
1545987992.44,19813,0.0,0.0,-5.71,-6.27,-6.27,0,*51
1545987993.69,19814,0.0,0.0,-5.71,-6.23,-6.27,0,*52
1545987994.91,19815,0.0,0.0,-5.73,-6.31,-6.39,0,*5D
1545987996.14,19816,0.0,0.0,-5.73,-6.31,-6.31,0,*56
1545987997.36,19817,0.0,0.0,-5.73,-6.39,-6.31,0,*5F
1545987998.6,19818,0.0,0.0,-5.73,-6.39,-6.27,0,*57
1545987999.83,19819,0.0,0.0,-5.73,-6.39,-6.31,0,*51
1545988001.07,19820,0.0,0.0,-5.73,-6.39,-6.27,0,*5C
1545988002.3,19821,0.0,0.0,-5.73,-6.39,-6.31,0,*5A
1545988003.52,19822,0.0,0.0,-5.73,-6.31,-6.31,0,*51
1545988004.75,19823,0.0,0.0,-5.73,-6.39,-6.31,0,*58
1545988005.97,19824,0.0,0.0,-5.73,-6.39,-6.31,0,*5F
1545988007.22,19825,0.0,0.0,-5.71,-6.27,-6.27,0,*54
1545988008.44,19826,0.0,0.0,-5.73,-6.31,-6.31,0,*55
1545988009.69,19827,0.0,0.0,-5.71,-6.27,-6.27,0,*56
1545988010.94,19828,0.0,0.0,-5.71,-6.23,-6.27,0,*5D
1545988012.19,19829,0.0,0.0,-5.71,-6.27,-6.27,0,*58
1545988013.43,19830,0.0,0.0,-5.71,-6.27,-6.23,0,*54
1545988014.66,19831,0.0,0.0,-5.71,-6.35,-6.27,0,*52
1545988015.87,19832,0.0,0.0,-5.71,-6.35,-6.35,0,*52
1545988017.07,19833,0.0,0.0,-5.71,-6.35,-6.35,0,*53
1545988018.3,19834,0.0,0.0,-5.71,-6.27,-6.35,0,*57
1545988019.53,19835,0.0,0.0,-5.71,-6.35,-6.27,0,*56
1545988020.76,19836,0.0,0.0,-5.71,-6.35,-6.27,0,*55
1545988022.01,19837,0.0,0.0,-5.69,-6.35,-6.19,0,*50
1545988023.22,19838,0.0,0.0,-5.71,-6.35,-6.35,0,*58
1545988024.44,19839,0.0,0.0,-5.71,-6.31,-6.23,0,*5A
1545988025.67,19840,0.0,0.0,-5.71,-6.35,-6.27,0,*54
1545988026.9,19841,0.0,0.0,-5.71,-6.35,-6.27,0,*55
1545988028.15,19842,0.0,0.0,-5.71,-6.27,-6.27,0,*55
1545988029.38,19843,0.0,0.0,-5.71,-6.27,-6.35,0,*57
1545988030.65,19844,0.0,0.0,-5.69,-6.19,-6.23,0,*53
1545988031.88,19845,0.0,0.0,-5.71,-6.35,-6.27,0,*51
1545988033.08,19846,0.0,0.0,-5.71,-6.35,-6.35,0,*51
1545988034.31,19847,0.0,0.0,-5.71,-6.35,-6.27,0,*53
1545988035.54,19848,0.0,0.0,-5.71,-6.35,-6.27,0,*5C
1545988036.75,19849,0.0,0.0,-5.71,-6.35,-6.39,0,*52
1545988037.95,19850,0.0,0.0,-5.71,-6.35,-6.35,0,*56
1545988039.16,19851,0.0,0.0,-5.71,-6.39,-6.35,0,*5B
1545988040.38,19852,0.0,0.0,-5.71,-6.27,-6.35,0,*57
1545988041.59,19853,0.0,0.0,-5.71,-6.35,-6.35,0,*55
1545988042.8,19854,0.0,0.0,-5.71,-6.35,-6.35,0,*52
1545988044.06,19855,0.0,0.0,-5.69,-6.23,-6.23,0,*5A
1545988045.29,19856,0.0,0.0,-5.69,-6.35,-6.31,0,*5D
1545988046.5,19857,0.0,0.0,-5.71,-6.35,-6.35,0,*51
1545988047.73,19858,0.0,0.0,-5.71,-6.35,-6.27,0,*5D
1545988048.97,19859,0.0,0.0,-5.69,-6.31,-6.23,0,*55
1545988050.22,19860,0.0,0.0,-5.69,-6.31,-6.23,0,*5F
1545988051.45,19861,0.0,0.0,-5.71,-6.35,-6.27,0,*57
1545988052.68,19862,0.0,0.0,-5.71,-6.35,-6.27,0,*54
1545988053.88,19863,0.0,0.0,-5.71,-6.35,-6.35,0,*56
1545988055.11,19864,0.0,0.0,-5.71,-6.35,-6.27,0,*52
1545988056.34,19865,0.0,0.0,-5.71,-6.39,-6.27,0,*5F
1545988057.57,19866,0.0,0.0,-5.69,-6.31,-6.31,0,*5A
1545988058.77,19867,0.0,0.0,-5.71,-6.35,-6.35,0,*52
1545988059.98,19868,0.0,0.0,-5.71,-6.35,-6.35,0,*5D
1545988061.22,19869,0.0,0.0,-5.71,-6.27,-6.23,0,*58
1545988062.43,19870,0.0,0.0,-5.71,-6.35,-6.35,0,*54
1545988063.64,19871,0.0,0.0,-5.71,-6.35,-6.35,0,*55
1545988064.85,19872,0.0,0.0,-5.71,-6.35,-6.35,0,*56
1545988066.11,19873,0.0,0.0,-5.69,-6.23,-6.23,0,*5E
1545988067.36,19874,0.0,0.0,-5.71,-6.27,-6.27,0,*50
1545988068.61,19875,0.0,0.0,-5.69,-6.23,-6.31,0,*5B
1545988069.81,19876,0.0,0.0,-5.71,-6.35,-6.39,0,*5E
1545988071.02,19877,0.0,0.0,-5.71,-6.35,-6.35,0,*53
1545988072.25,19878,0.0,0.0,-5.69,-6.31,-6.31,0,*55
1545988073.46,19879,0.0,0.0,-5.71,-6.35,-6.35,0,*5D
1545988074.72,19880,0.0,0.0,-5.69,-6.23,-6.23,0,*52
1545988075.95,19881,0.0,0.0,-5.69,-6.31,-6.31,0,*53
1545988077.16,19882,0.0,0.0,-5.71,-6.35,-6.35,0,*59
1545988078.38,19883,0.0,0.0,-5.69,-6.31,-6.31,0,*51
1545988079.63,19884,0.0,0.0,-5.69,-6.35,-6.23,0,*51
1545988080.86,19885,0.0,0.0,-5.71,-6.35,-6.27,0,*5D
1545988082.09,19886,0.0,0.0,-5.71,-6.35,-6.27,0,*5E
1545988083.29,19887,0.0,0.0,-5.71,-6.39,-6.35,0,*50
1545988084.52,19888,0.0,0.0,-5.69,-6.31,-6.31,0,*5A
1545988085.76,19889,0.0,0.0,-5.69,-6.31,-6.23,0,*58
1545988087.01,19890,0.0,0.0,-5.69,-6.35,-6.23,0,*54
1545988088.24,19891,0.0,0.0,-5.69,-6.31,-6.31,0,*52
1545988089.45,19892,0.0,0.0,-5.71,-6.35,-6.35,0,*58
1545988090.67,19893,0.0,0.0,-5.71,-6.39,-6.27,0,*56
1545988091.9,19894,0.0,0.0,-5.69,-6.31,-6.31,0,*57
1545988093.12,19895,0.0,0.0,-5.71,-6.39,-6.27,0,*50
1545988094.33,19896,0.0,0.0,-5.71,-6.35,-6.35,0,*5C
1545988095.58,19897,0.0,0.0,-5.69,-6.31,-6.19,0,*5E
1545988096.82,19898,0.0,0.0,-5.69,-6.31,-6.23,0,*58
1545988098.03,19899,0.0,0.0,-5.71,-6.35,-6.35,0,*53
1545988099.25,19900,0.0,0.0,-5.71,-6.39,-6.27,0,*5D
1545988100.5,19901,0.0,0.0,-5.69,-6.31,-6.23,0,*59
1545988101.74,19902,0.0,0.0,-5.69,-6.31,-6.23,0,*5A
1545988102.94,19903,0.0,0.0,-5.71,-6.39,-6.35,0,*5D
1545988104.17,19904,0.0,0.0,-5.69,-6.31,-6.31,0,*5F
1545988105.4,19905,0.0,0.0,-5.69,-6.31,-6.31,0,*5E
1545988106.62,19906,0.0,0.0,-5.69,-6.31,-6.31,0,*5D
1545988107.83,19907,0.0,0.0,-5.71,-6.39,-6.35,0,*59
1545988109.05,19908,0.0,0.0,-5.69,-6.31,-6.31,0,*53
1545988110.26,19909,0.0,0.0,-5.71,-6.35,-6.35,0,*5B
1545988111.49,19910,0.0,0.0,-5.71,-6.27,-6.35,0,*50
1545988112.72,19911,0.0,0.0,-5.71,-6.35,-6.27,0,*51
1545988113.94,19912,0.0,0.0,-5.71,-6.39,-6.27,0,*5E
1545988115.14,19913,0.0,0.0,-5.71,-6.39,-6.35,0,*5C
1545988116.36,19914,0.0,0.0,-5.71,-6.39,-6.27,0,*58
1545988117.59,19915,0.0,0.0,-5.71,-6.35,-6.27,0,*55
1545988118.8,19916,0.0,0.0,-5.71,-6.31,-6.31,0,*55
1545988120.0,19917,0.0,0.0,-5.71,-6.39,-6.31,0,*5C
1545988121.23,19918,0.0,0.0,-5.69,-6.31,-6.35,0,*56
1545988122.45,19919,0.0,0.0,-5.69,-6.31,-6.35,0,*57
1545988123.68,19920,0.0,0.0,-5.69,-6.31,-6.31,0,*59
1545988124.91,19921,0.0,0.0,-5.69,-6.31,-6.31,0,*58
1545988126.13,19922,0.0,0.0,-5.71,-6.39,-6.23,0,*59
1545988127.36,19923,0.0,0.0,-5.69,-6.35,-6.31,0,*5E
1545988128.61,19924,0.0,0.0,-5.69,-6.35,-6.23,0,*5A
1545988129.81,19925,0.0,0.0,-5.71,-6.35,-6.39,0,*59
1545988131.04,19926,0.0,0.0,-5.69,-6.35,-6.31,0,*5B
1545988132.25,19927,0.0,0.0,-5.71,-6.35,-6.35,0,*57
1545988133.45,19928,0.0,0.0,-5.71,-6.39,-6.35,0,*54
1545988134.65,19929,0.0,0.0,-5.71,-6.39,-6.35,0,*55
1545988135.86,19930,0.0,0.0,-5.71,-6.35,-6.35,0,*51
1545988137.09,19931,0.0,0.0,-5.69,-6.35,-6.31,0,*5D
1545988138.29,19932,0.0,0.0,-5.71,-6.35,-6.35,0,*53
1545988139.53,19933,0.0,0.0,-5.69,-6.35,-6.31,0,*5F
1545988140.73,19934,0.0,0.0,-5.71,-6.39,-6.35,0,*59
1545988141.93,19935,0.0,0.0,-5.71,-6.39,-6.35,0,*58
1545988143.15,19936,0.0,0.0,-5.69,-6.31,-6.31,0,*5E
1545988144.38,19937,0.0,0.0,-5.69,-6.31,-6.31,0,*5F
1545988145.61,19938,0.0,0.0,-5.69,-6.31,-6.31,0,*50
1545988146.84,19939,0.0,0.0,-5.71,-6.35,-6.27,0,*5B
1545988148.05,19940,0.0,0.0,-5.71,-6.35,-6.35,0,*56
1545988149.27,19941,0.0,0.0,-5.71,-6.27,-6.35,0,*54
1545988150.5,19942,0.0,0.0,-5.69,-6.31,-6.31,0,*5D
1545988151.73,19943,0.0,0.0,-5.69,-6.31,-6.31,0,*5C
1545988152.96,19944,0.0,0.0,-5.71,-6.35,-6.27,0,*51
1545988154.2,19945,0.0,0.0,-5.69,-6.31,-6.23,0,*59
1545988155.4,19946,0.0,0.0,-5.71,-6.39,-6.35,0,*5C
1545988156.63,19947,0.0,0.0,-5.69,-6.31,-6.31,0,*58
1545988157.84,19948,0.0,0.0,-5.71,-6.35,-6.35,0,*5E
1545988159.08,19949,0.0,0.0,-5.71,-6.27,-6.27,0,*5F
1545988160.29,19950,0.0,0.0,-5.71,-6.35,-6.39,0,*5B
1545988161.49,19951,0.0,0.0,-5.71,-6.35,-6.35,0,*56